This demonstration page uses our WeatherBlox Daily Observations layout. Learn more.

Left ArrowRight Arrow

Hourly Observations for November 18, 2019

Temp ( °F °C ) Dew Point ( °F °C ) Humidity (%) Winds ( mph kmh ) Pressure ( in mb ) Visibility ( mi km ) Precip ( " mm )
12:53 am 00:53 Cloudy 40 4.4 27 -2.8 60 60 S 5 7 29.83 1010 10 16 0.00 0.00
1:53 am 01:53 Mostly Cloudy 42 5.6 27 -2.8 55 55 S 6 9 29.79 1009 10 16 0.00 0.00
2:53 am 02:53 Mostly Cloudy 43 6.1 26 -3.3 51 51 SSW 7 11 29.77 1008 10 16 0.00 0.00
3:53 am 03:53 Cloudy 43 6.1 27 -2.8 53 53 SW 7 11 29.75 1008 10 16 0.00 0.00
4:53 am 04:53 Cloudy 44 6.7 29 -1.7 55 55 WSW 6 9 29.75 1008 10 16 0.00 0.00
5:53 am 05:53 Mostly Clear 44 6.7 29 -1.7 55 55 W 8 13 29.75 1008 10 16 0.00 0.00
6:53 am 06:53 Mostly Cloudy 46 7.8 32 0 58 58 WNW 8 13 29.76 1008 10 16 0.00 0.00
7:53 am 07:53 Cloudy 48 8.9 34 1.1 58 58 WNW 12 19 29.78 1008 10 16 0.00 0.00
8:53 am 08:53 Cloudy 52 11.1 37 2.8 57 57 NW 12 19 29.79 1009 10 16 0.00 0.00
9:53 am 09:53 Mostly Cloudy 58 14.4 43 6.1 58 58 NW 17 28 29.79 1009 10 16 0.00 0.00
10:53 am 10:53 Sunny 61 16.1 43 6.1 52 52 NNW 14 22 29.78 1009 10 16 0.00 0.00
11:53 am 11:53 Sunny 64 17.8 43 6.1 46 46 NW 20 31 29.77 1008 10 16 0.00 0.00
12:53 pm 12:53 Sunny 66 18.9 37 2.8 34 34 NW 28 44 29.75 1008 10 16 0.00 0.00
1:53 pm 13:53 Sunny 68 20 30 -1.1 24 24 NW 32 52 29.73 1007 10 16 0.00 0.00
2:53 pm 14:53 Partly Cloudy 68 20 32 0 26 26 NNW 26 43 29.73 1007 10 16 0.00 0.00
3:53 pm 15:53 Sunny 66 18.9 28 -2.2 24 24 NNW 32 52 29.76 1008 10 16 0.00 0.00
4:53 pm 16:53 Sunny 63 17.2 27 -2.8 26 26 NNW 22 35 29.76 1008 10 16 0.00 0.00
5:53 pm 17:53 Clear 56 13.3 27 -2.8 33 33 NW 13 20 29.79 1009 10 16 0.00 0.00
6:53 pm 18:53 Clear 56 13.3 27 -2.8 33 33 NW 15 24 29.82 1010 10 16 0.00 0.00
7:53 pm 19:53 Clear 49 9.4 27 -2.8 43 43 WNW 10 17 29.85 1011 10 16 0.00 0.00
8:53 pm 20:53 Clear 47 8.3 27 -2.8 46 46 WNW 10 17 29.87 1012 10 16 0.00 0.00
9:53 pm 21:53 Clear 50 10 28 -2.2 43 43 NW 13 20 29.88 1012 10 16 0.00 0.00
10:53 pm 22:53 Clear 41 5 27 -2.8 57 57 N 7 11 29.88 1012 10 16 0.00 0.00
11:53 pm 23:53 Clear 37 2.8 26 -3.3 65 65 W 6 9 29.88 1012 10 16 0.00 0.00

Powered by AerisWeather